This demonstration page uses our WeatherBlox Daily Observations layout. Learn more.

Hourly Observations for March 14, 2019

Temp ( °F °C ) Dew Point ( °F °C ) Humidity (%) Winds ( mph kmh ) Pressure ( in mb ) Visibility ( mi km ) Precip ( " mm )
12:35 am 00:35 Windy with Snow Likely 32 -0.2 28 -2 88 88 NNW 33 54 29.26 991 2 3.218688 0 0
12:55 am 00:55 Windy with Snow Likely 32 -0.2 28 -2 88 88 NNW 33 54 29.26 991 1.75 2.816352 0 0
1:15 am 01:15 Windy with Snow Likely 32 -0.2 28 -2.1 87 87 NNW 37 59 29.29 992 1.5 2.414016 0 0
1:35 am 01:35 Windy with Snow Likely 31 -0.3 28 -2.1 88 88 NNW 36 57 29.35 994 1.5 2.414016 0 0
1:55 am 01:55 Very Windy with Snow Likely 32 -0.1 28 -2.3 85 85 NNW 41 67 29.32 993 2 3.218688 0 0
2:15 am 02:15 Windy with Snow Likely 32 -0.1 28 -2.5 84 84 NNW 33 54 29.32 993 3 4.828032 0 0
2:35 am 02:35 Very Windy with Snow Likely 32 -0.2 28 -2.3 86 86 NNW 40 65 29.38 995 1.5 2.414016 0 0
2:55 am 02:55 Windy with Snow Likely 31 -0.3 28 -2.2 87 87 NNW 36 57 29.41 996 1.25 2.01168 0 0
3:15 am 03:15 Very Windy with Snow Likely 32 -0.2 28 -2.3 86 86 NNW 46 74 29.41 996 1.5 2.414016 0 0
3:35 am 03:35 Very Windy with Snow Likely 32 -0.1 27 -2.8 82 82 NNW 39 63 29.44 997 7 11.265408 0 0
3:55 am 03:55 Cloudy 32 0 27 -2.7 82 82 NNW 36 57 29.44 997 10 16.09344 0 0
4:15 am 04:15 Cloudy 32 0 27 -2.7 82 82 NNW 40 65 29.44 997 10 16.09344 0 0
4:35 am 04:35 Very Windy with Snow Likely 32 0 28 -2.5 83 83 NNW 39 63 29.44 997 5 8.04672 0 0
4:55 am 04:55 Very Windy with Snow Likely 32 0 28 -2.5 83 83 NNW 40 65 29.44 997 2.5 4.02336 0 0
5:15 am 05:15 Very Windy with Snow Likely 33 0.3 27 -2.6 81 81 NNW 45 72 29.47 998 7 11.265408 0 0
5:35 am 05:35 Cloudy 33 0.3 27 -2.7 81 81 NNW 37 59 29.5 999 10 16.09344 0 0
5:55 am 05:55 Cloudy 32 0.2 27 -3 79 79 NNW 44 70 29.53 1000 10 16.09344 0 0
6:15 am 06:15 Cloudy 33 0.3 26 -3.1 78 78 NNW 47 76 29.53 1000 10 16.09344 0 0
6:35 am 06:35 Cloudy 33 0.3 26 -3.2 78 78 NNW 46 74 29.56 1001 10 16.09344 0 0
6:55 am 06:55 Cloudy 33 0.3 26 -3.1 78 78 NNW 37 59 29.59 1002 10 16.09344 0 0
7:15 am 07:15 Cloudy 33 0.5 26 -3.2 77 77 NNW 44 70 29.59 1002 10 16.09344 0 0
7:35 am 07:35 Cloudy 33 0.6 27 -3 77 77 NNW 44 70 29.62 1003 10 16.09344 0 0
7:55 am 07:55 Cloudy 34 1 27 -3 75 75 NNW 38 61 29.62 1003 10 16.09344 0 0
8:15 am 08:15 Cloudy 34 1 27 -2.8 76 76 NNW 41 67 29.65 1004 10 16.09344 0 0
8:35 am 08:35 Cloudy 34 1.1 27 -2.7 76 76 NNW 38 61 29.68 1005 10 16.09344 0 0
8:55 am 08:55 Cloudy 34 1.1 27 -2.9 75 75 NNW 40 65 29.68 1005 10 16.09344 0 0
9:15 am 09:15 Cloudy 34 1.2 27 -2.9 74 74 NNW 43 69 29.71 1006 10 16.09344 0 0
9:35 am 09:35 Cloudy 34 1.3 27 -2.9 74 74 NNW 36 57 29.71 1006 10 16.09344 0 0
9:55 am 09:55 Cloudy 34 1.2 27 -2.8 75 75 NNW 45 72 29.71 1006 10 16.09344 0 0
10:15 am 10:15 Cloudy 34 1.3 27 -2.9 74 74 NNW 37 59 29.74 1007 10 16.09344 0 0
10:35 am 10:35 Cloudy 34 1.1 27 -2.8 76 76 NNW 36 57 29.77 1008 10 16.09344 0 0
10:55 am 10:55 Cloudy 34 1.1 27 -3 74 74 NNW 47 76 29.77 1008 10 16.09344 0 0
11:15 am 11:15 Cloudy 34 1.2 26 -3.1 73 73 NNW 43 69 29.77 1008 10 16.09344 0 0
11:35 am 11:35 Cloudy 35 1.5 27 -3 72 72 NNW 38 61 29.77 1008 10 16.09344 0 0
11:55 am 11:55 Cloudy 35 1.5 27 -3 72 72 NNW 39 63 29.8 1009 10 16.09344 0 0
12:15 pm 12:15 Cloudy 35 1.5 27 -2.8 73 73 NNW 39 63 29.83 1010 10 16.09344 0 0
12:35 pm 12:35 Cloudy 34 1.2 27 -2.7 76 76 NW 37 59 29.85 1011 10 16.09344 0 0
12:55 pm 12:55 Cloudy 34 1.2 27 -2.8 75 75 NNW 36 57 29.88 1012 10 16.09344 0 0
1:15 pm 13:15 Cloudy 34 1.1 27 -3 74 74 NNW 35 56 29.91 1013 10 16.09344 0 0
1:35 pm 13:35 Cloudy 34 1.1 27 -3 74 74 NNW 35 56 29.91 1013 10 16.09344 0 0
1:55 pm 13:55 Cloudy 34 1.2 27 -3 74 74 NNW 33 54 29.94 1014 10 16.09344 0 0
2:15 pm 14:15 Cloudy 34 1.1 26 -3.1 74 74 NNW 32 52 29.97 1015 10 16.09344 0 0
2:35 pm 14:35 Cloudy 35 1.5 26 -3.2 71 71 NNW 32 52 29.97 1015 10 16.09344 0 0
2:55 pm 14:55 Cloudy 35 1.7 26 -3.3 70 70 NNW 33 54 29.97 1015 10 16.09344 0 0
3:15 pm 15:15 Cloudy 36 2.1 26 -3.2 68 68 NNW 39 63 30 1016 10 16.09344 0 0
3:35 pm 15:35 Mostly Cloudy 36 2 26 -3.2 69 69 NNW 36 57 30 1016 10 16.09344 0 0
3:55 pm 15:55 Partly Cloudy 36 2.3 25 -3.8 64 64 NNW 38 61 30 1016 10 16.09344 0 0
4:15 pm 16:15 Sunny 37 2.5 24 -4.3 61 61 NNW 36 57 30.03 1017 10 16.09344 0 0
4:35 pm 16:35 Sunny 37 2.6 25 -4 62 62 NNW 41 67 30.06 1018 10 16.09344 0 0
4:55 pm 16:55 Partly Cloudy 37 3 24 -4.2 60 60 NNW 35 56 30.09 1019 10 16.09344 0 0
5:15 pm 17:15 Partly Cloudy 37 2.8 24 -4.4 59 59 NNW 36 57 30.12 1020 10 16.09344 0 0
5:35 pm 17:35 Partly Cloudy 37 3 26 -3.3 64 64 NNW 30 48 30.12 1020 10 16.09344 0 0
5:55 pm 17:55 Partly Cloudy 37 2.7 24 -4.2 61 61 NNW 30 48 30.12 1020 10 16.09344 0 0
6:15 pm 18:15 Partly Cloudy 37 2.8 24 -4.3 60 60 NNW 30 48 30.12 1020 10 16.09344 0 0
6:35 pm 18:35 Sunny 37 2.8 24 -4.7 58 58 NNW 31 50 30.12 1020 10 16.09344 0 0
6:55 pm 18:55 Sunny 37 2.6 24 -4.5 60 60 NNW 26 43 30.15 1021 10 16.09344 0 0
7:15 pm 19:15 Partly Cloudy 37 2.5 24 -4.5 60 60 NNW 33 54 30.15 1021 10 16.09344 0 0
7:35 pm 19:35 Sunny 36 2.2 23 -4.9 60 60 NNW 33 54 30.15 1021 10 16.09344 0 0
7:55 pm 19:55 Clear 35 1.9 24 -4.7 62 62 NW 28 44 30.18 1022 10 16.09344 0 0
8:15 pm 20:15 Clear 35 1.6 23 -4.8 63 63 NW 28 44 30.18 1022 10 16.09344 0 0
8:35 pm 20:35 Clear 35 1.5 23 -4.9 63 63 NW 28 44 30.24 1024 10 16.09344 0 0
8:55 pm 20:55 Clear 35 1.4 23 -5 63 63 NW 26 43 30.24 1024 10 16.09344 0 0
9:15 pm 21:15 Clear 34 1.1 23 -5 64 64 NW 30 48 30.27 1025 10 16.09344 0 0
9:35 pm 21:35 Clear 34 1 23 -5 65 65 NW 26 43 30.27 1025 10 16.09344 0 0
9:55 pm 21:55 Clear 33 0.8 23 -4.9 66 66 NW 22 35 30.27 1025 10 16.09344 0 0
10:15 pm 22:15 Clear 33 0.5 24 -4.7 68 68 NW 21 33 30.3 1026 10 16.09344 0 0
10:35 pm 22:35 Clear 33 0.3 24 -4.7 69 69 NW 21 33 30.3 1026 10 16.09344 0 0
10:55 pm 22:55 Clear 33 0.3 24 -4.7 69 69 NW 20 31 30.3 1026 10 16.09344 0 0
11:15 pm 23:15 Clear 32 0.1 24 -4.7 70 70 NW 18 30 30.3 1026 10 16.09344 0 0
11:35 pm 23:35 Clear 32 0 24 -4.7 71 71 NW 18 30 30.3 1026 10 16.09344 0 0
11:55 pm 23:55 Clear 32 -0.2 24 -4.5 73 73 NW 15 24 30.33 1027 10 16.09344 0 0

Powered by AerisWeather